{"data":{"norad_id":64307,"epoch":"2026-09-20T17:36:28.879776Z","epoch_age_seconds":117386,"freshness":"FRESH","line1":"1 64307U 25123S   26263.73366759  .00017016  00000+0  59467-3 0  9996","line2":"2 64307  70.0001  60.3111 0002438 271.7773  88.3123 15.29601720 70895","mean_motion":15.2960172,"eccentricity":0.0002438,"inclination_deg":70.0001,"raan_deg":60.3111,"arg_perigee_deg":271.7773,"mean_anomaly_deg":88.3123,"bstar":0.00059467,"rev_number":7089,"period_min":94.142153553541,"perigee_km":475.33072499784,"apogee_km":478.67329077808,"semimajor_km":6855.139007888,"source":"CELESTRAK","updated_at":"2026-09-21T09:00:35.308202Z"}}